GFSNW_sfc_dewp_006.txt.gz
Dewpoint
41 40 41 44 45 47 46 42 35 49 50 37 38 31 29 34 39 40 38 35 33 31 31 31 27 27 29 34 35 32 34 34 27 27 31 31 29 28 28 24 17 22 18 16
42 39 41 43 46 47 45 38 42 49 46 33 35 34 33 36 39 39 38 36 36 36 32 28 30 30 31 35 35 33 34 33 26 26 31 34 33 30 28 27 28 21 17 15
41 40 41 43 47 48 47 40 36 42 43 41 34 32 32 32 38 39 39 37 37 36 34 33 30 31 32 34 35 38 36 35 30 23 29 33 31 32 31 28 26 23 22 21
41 39 41 44 47 48 48 43 37 38 32 37 34 34 33 32 34 38 39 38 37 37 36 33 32 32 31 34 36 38 38 31 33 33 31 34 34 33 32 30 28 24 21 21
40 39 42 44 48 49 44 40 39 39 36 36 32 33 35 34 35 38 36 36 36 38 37 34 28 33 33 34 35 36 39 31 33 31 35 34 33 35 35 34 30 27 25 25
39 40 43 45 47 48 41 42 44 39 37 36 33 33 34 34 38 37 39 39 39 38 38 39 39 37 37 37 36 37 35 33 32 28 35 35 29 32 32 33 34 29 27 28
39 40 42 44 46 48 45 44 44 41 36 35 33 35 34 37 39 36 39 40 39 40 43 42 40 38 38 38 38 39 35 33 33 29 33 28 34 37 34 32 34 33 30 36
39 40 40 42 45 47 46 46 44 44 36 36 35 38 37 37 40 40 39 39 41 43 42 39 36 35 35 36 38 39 38 35 33 31 31 32 35 38 34 33 33 34 33 34
40 39 41 42 45 46 46 46 48 45 39 36 36 38 39 39 39 39 40 42 43 45 42 38 33 27 30 28 32 34 38 37 34 32 29 21 26 40 42 40 34 38 37 37
41 40 41 41 44 45 46 46 48 46 42 42 41 38 39 41 39 37 37 38 40 42 39 36 34 32 32 28 28 33 34 33 31 31 30 29 32 32 40 34 30 33 39 39
41 40 41 40 43 46 46 45 49 47 43 43 42 41 40 39 39 36 41 40 41 40 37 37 36 35 32 29 29 30 31 30 29 29 27 22 34 33 31 32 33 33 34 34
41 40 41 40 41 44 46 43 46 49 45 42 45 44 43 42 41 41 42 41 41 42 40 38 39 36 32 31 27 31 31 32 31 31 29 32 34 34 35 34 33 33 34 35
40 41 41 39 41 43 45 43 45 47 45 44 42 42 44 46 46 45 41 43 44 44 46 42 38 35 35 31 31 29 32 35 34 33 32 34 33 34 34 34 34 35 35 34
41 41 39 40 41 42 43 42 44 43 45 40 38 45 43 45 47 46 46 46 47 47 46 43 39 35 35 33 33 33 35 35 34 33 34 32 33 34 34 34 34 34 34 34
38 38 38 39 40 42 42 43 44 44 45 41 42 42 43 46 46 45 47 46 45 44 43 42 40 38 36 34 34 32 35 36 34 34 35 33 33 34 34 33 33 33 32 31
38 37 37 38 39 41 41 39 48 49 49 44 39 45 44 46 47 46 46 46 45 45 44 43 44 42 39 33 32 35 35 35 37 36 33 33 34 33 34 33 32 32 31 31
37 38 38 38 39 39 37 38 44 44 45 44 38 37 44 45 44 46 46 47 45 45 43 43 43 42 42 39 35 36 36 35 34 34 33 33 33 33 33 33 33 33 31 30
37 38 39 40 41 40 39 42 44 44 43 45 36 37 40 45 43 42 46 44 45 44 43 43 41 40 40 37 37 35 34 34 33 33 34 34 33 33 32 31 30 29 29 30
41 39 41 43 41 38 42 43 44 46 46 39 38 35 32 43 43 42 43 44 40 43 41 41 40 38 35 38 37 36 34 34 32 32 32 32 32 31 31 30 29 28 29 29
38 39 36 37 37 41 42 45 43 42 43 43 39 38 37 40 41 39 40 40 38 34 39 39 38 37 39 39 37 37 35 33 32 30 29 29 30 31 30 29 28 28 28 28
35 32 34 38 40 39 42 37 38 39 36 41 39 36 37 39 37 38 38 35 34 33 32 36 33 34 36 36 38 38 34 32 32 32 31 31 31 29 27 27 27 26 26 25
36 36 38 38 34 33 32 33 35 35 32 38 39 37 36 37 39 37 36 31 34 30 32 34 31 32 31 33 35 34 33 32 32 31 31 30 29 27 27 26 25 25 24 23
38 35 31 31 31 28 30 28 32 33 36 36 36 33 35 35 35 34 32 32 31 29 30 30 30 28 30 31 33 32 33 32 29 28 28 27 27 27 26 26 26 24 23 22
29 26 20 26 26 30 31 31 32 32 33 36 36 30 31 35 30 31 31 32 30 28 26 23 25 25 28 31 31 32 30 29 27 26 26 27 27 27 27 27 26 24 23 23
29 28 20 25 32 32 33 33 32 34 37 35 35 33 32 31 26 27 30 28 26 26 25 25 24 21 27 29 29 28 27 26 26 27 26 26 27 27 27 27 26 25 23 22
30 26 21 31 27 26 33 33 33 35 38 35 35 32 31 31 27 25 25 22 23 26 25 23 20 26 27 27 28 27 27 26 26 26 26 26 26 26 26 25 24 23 20 18
27 29 32 29 28 31 32 34 35 38 36 34 33 30 29 26 22 21 23 24 28 29 22 28 21 22 25 26 26 26 26 26 26 25 25 25 25 24 23 21 18 17 15 14

GFSNW_sfc_dewp_009.txt.gz
Dewpoint
43 43 42 41 44 47 46 40 35 47 49 36 34 33 29 37 37 39 38 34 32 30 30 31 29 27 27 33 35 34 33 32 27 26 31 32 30 28 28 25 21 25 20 18
43 42 40 42 45 48 45 38 40 47 45 32 34 35 35 37 39 38 37 35 35 34 31 30 30 30 31 35 34 32 34 32 23 23 30 32 32 30 30 29 27 24 19 17
42 41 41 43 46 49 47 39 35 40 43 41 34 32 32 33 39 39 38 37 36 35 33 31 30 31 33 34 35 37 36 33 26 22 26 33 31 31 32 31 26 23 22 22
42 40 43 44 46 50 47 42 37 37 33 36 34 34 33 33 34 37 38 37 36 34 35 34 33 32 32 35 36 37 36 31 33 32 31 33 33 33 33 31 29 24 21 22
42 40 44 45 47 49 43 37 38 38 36 36 32 33 31 32 35 37 36 35 36 37 36 33 31 32 32 32 34 36 38 32 33 31 34 34 31 34 34 32 31 28 26 26
42 40 43 45 46 48 42 42 43 41 36 34 32 31 34 34 36 37 38 37 37 37 37 38 38 39 38 37 35 35 36 33 32 27 31 34 31 33 33 34 34 31 28 29
41 41 42 44 45 47 46 43 43 40 35 33 32 32 34 36 37 36 39 39 39 40 42 42 42 41 40 39 37 37 37 33 33 29 32 27 37 38 35 33 31 34 33 31
41 41 41 42 44 45 45 46 43 42 36 35 34 34 32 35 38 39 39 39 40 43 41 36 37 36 35 35 37 37 38 36 32 30 31 33 30 34 35 33 32 33 35 34
41 41 41 41 42 45 45 46 47 44 39 35 35 37 38 36 36 39 40 42 44 42 40 37 33 29 28 28 30 36 38 38 34 33 29 27 27 37 37 39 32 34 34 35
41 41 41 41 41 43 45 45 48 44 42 40 37 36 38 41 39 38 37 38 38 42 39 35 33 32 31 28 28 31 34 34 32 32 31 30 33 34 40 31 31 33 37 36
41 41 41 41 40 42 44 43 47 43 44 42 42 42 39 39 38 37 39 39 40 40 36 36 35 32 32 29 29 31 30 30 29 31 29 22 34 37 34 33 33 33 37 38
41 41 41 40 40 41 44 41 44 44 44 42 46 44 43 41 41 41 42 40 41 41 38 38 39 35 33 30 28 31 31 31 30 31 29 32 34 33 34 34 33 34 36 35
39 39 39 39 39 41 42 42 43 43 45 42 42 41 44 45 44 45 41 42 43 43 46 43 39 36 35 30 30 29 33 35 35 34 33 34 35 34 34 34 34 35 35 33
38 38 38 38 38 39 40 41 42 42 41 40 37 44 41 45 46 46 45 46 47 46 46 42 40 35 36 33 33 33 35 36 34 34 34 34 34 34 34 34 34 34 33 32
38 38 37 38 38 38 39 40 42 43 40 40 41 42 42 45 45 46 46 45 44 44 42 41 39 39 35 33 33 32 35 35 34 33 35 34 33 34 34 34 33 33 31 30
38 37 36 38 38 38 39 37 45 45 46 42 38 45 42 46 46 45 45 45 45 44 43 41 43 42 38 33 32 35 35 35 37 36 34 33 34 34 34 32 32 32 31 30
38 37 38 39 39 39 36 36 42 43 42 42 38 37 45 45 45 45 45 46 45 44 42 41 43 43 43 39 35 37 37 37 35 34 33 33 33 33 33 32 32 32 29 28
38 38 39 40 40 40 38 42 44 45 41 44 36 36 39 45 42 42 46 44 45 44 43 43 42 41 41 38 39 37 34 34 34 33 34 34 33 33 32 31 30 29 28 28
39 39 40 43 41 38 40 42 43 45 43 39 38 34 29 44 43 42 44 44 40 43 41 41 40 39 36 38 38 37 35 34 34 32 33 33 32 31 31 30 29 28 28 28
38 38 35 35 37 41 42 44 41 40 43 43 39 37 36 40 40 40 40 40 38 34 39 40 37 38 39 39 39 37 36 34 32 31 29 30 30 31 30 29 28 28 28 28
34 32 32 37 40 40 38 36 38 39 37 41 38 35 36 40 37 38 36 35 34 33 31 36 34 33 35 35 36 38 36 33 33 33 32 33 32 31 29 28 28 28 28 26
36 36 38 38 34 33 31 32 35 35 33 38 38 37 36 36 38 37 36 30 34 30 31 33 31 32 31 32 34 36 34 33 32 32 32 32 31 29 28 27 27 26 25 23
37 34 28 28 31 28 29 28 32 33 35 36 36 35 36 35 34 33 29 32 31 29 30 30 29 30 30 31 33 33 33 32 30 29 29 29 28 28 27 26 25 23 22 21
26 27 17 27 28 29 31 30 31 34 33 35 36 34 34 34 29 30 33 31 31 28 26 21 25 26 27 30 31 32 31 29 28 27 28 28 27 27 26 25 24 22 21 20
28 26 15 26 32 32 33 33 32 35 36 36 35 34 32 26 29 28 31 29 27 28 25 24 23 21 25 29 30 29 28 27 27 27 27 27 27 25 25 24 24 22 21 19
30 27 19 29 20 20 30 31 31 36 38 35 35 33 31 30 30 26 28 26 24 26 27 23 21 26 28 29 29 28 27 27 26 26 27 27 26 25 24 24 23 22 20 18
26 28 32 30 27 26 28 29 33 37 35 34 33 31 30 26 23 24 24 24 28 30 25 24 26 21 25 27 27 27 27 26 26 26 26 26 26 24 22 20 19 18 17 16

GFSNW_sfc_dewp_015.txt.gz
Dewpoint
43 44 42 44 47 50 47 40 34 46 45 38 38 36 37 36 34 37 33 31 28 27 27 27 27 27 27 30 32 30 30 29 29 28 27 27 27 28 26 27 24 27 26 22
43 43 43 45 47 49 47 39 38 46 46 34 33 37 36 34 36 36 34 31 30 30 28 27 28 28 30 30 32 30 31 31 27 30 29 27 27 27 27 30 31 29 26 21
43 43 43 46 48 48 47 40 35 39 42 41 34 37 34 35 39 36 35 33 31 30 29 30 29 29 32 31 32 38 35 30 32 24 31 30 33 31 31 32 30 26 25 25
42 43 43 45 47 48 47 42 37 38 36 35 36 36 34 34 32 36 34 32 30 28 27 28 28 30 32 33 36 33 32 33 33 30 29 32 32 31 31 33 33 30 27 26
42 43 44 45 46 47 44 38 39 39 35 33 31 33 32 32 34 33 32 31 32 31 29 30 29 31 31 30 33 32 35 33 34 31 31 31 32 31 33 37 36 34 35 33
42 43 44 45 45 45 42 44 42 41 35 32 29 31 31 32 34 37 36 34 34 33 34 36 36 35 34 34 33 33 34 34 32 28 28 30 31 36 37 37 37 36 33 35
42 42 42 43 43 45 44 44 43 40 33 31 29 31 32 32 34 35 37 36 34 40 41 40 39 37 36 35 36 37 35 34 34 32 32 29 33 37 38 37 36 34 33 35
42 42 42 43 41 43 44 45 43 41 35 33 31 31 33 35 34 35 37 38 39 40 38 35 30 34 34 34 36 38 39 36 34 31 28 28 34 35 37 37 35 33 34 38
39 41 41 41 41 41 43 46 45 43 39 33 32 32 33 35 34 36 36 41 43 41 39 35 28 28 28 29 34 38 37 36 35 33 29 26 33 34 37 37 31 34 34 37
39 39 39 39 40 41 42 44 44 42 39 38 37 32 33 35 35 35 38 40 41 42 39 34 30 31 32 27 28 31 34 35 32 32 30 30 33 34 37 31 30 35 35 37
39 38 38 38 39 39 40 42 44 40 37 38 41 37 37 38 38 35 39 39 39 40 36 34 33 32 31 31 29 30 30 30 30 31 31 28 34 34 33 35 36 35 35 42
39 39 38 38 38 38 39 38 43 43 38 38 45 45 43 41 39 40 41 40 39 40 38 39 38 36 33 30 28 32 30 31 31 31 31 34 36 36 37 37 35 35 36 39
39 39 39 39 38 37 38 38 41 40 38 41 45 42 44 45 44 46 40 43 42 42 44 42 40 37 39 35 31 32 33 34 33 34 34 35 36 36 36 35 35 36 37 37
40 39 38 38 39 37 38 38 41 39 37 36 41 45 44 47 46 45 46 44 46 46 46 42 39 36 40 35 35 35 36 36 35 35 36 36 36 35 35 35 35 36 37 34
40 38 39 39 39 38 39 38 41 41 36 36 41 44 46 46 46 45 45 44 44 45 43 41 39 40 39 36 37 34 35 35 35 31 36 36 35 35 35 34 33 33 32 31
40 39 39 40 38 38 37 35 42 43 42 36 39 45 44 45 45 45 45 45 45 45 43 41 42 42 40 38 33 34 34 35 35 35 36 35 35 35 35 34 33 32 31 30
39 38 39 39 38 39 34 33 41 42 42 37 39 40 45 45 45 45 45 46 46 45 43 41 41 40 43 39 34 35 35 37 37 37 36 35 35 34 34 33 32 32 29 28
39 39 38 39 40 40 37 38 42 43 40 39 37 39 40 45 42 41 45 43 44 44 43 43 41 42 42 37 38 38 38 38 38 37 36 35 35 34 33 32 30 28 28 27
39 38 39 41 39 35 39 41 43 45 40 37 40 37 36 45 43 43 44 45 40 44 41 41 42 39 37 38 39 39 40 39 39 37 35 34 34 33 32 31 30 28 27 26
37 37 36 34 37 40 42 39 38 39 40 40 39 38 38 41 41 41 41 43 40 36 40 41 38 38 40 39 39 40 41 39 37 36 36 37 37 35 32 32 30 29 28 26
36 33 32 37 40 40 38 34 33 37 36 40 40 37 36 42 38 38 40 39 37 35 36 35 37 35 37 36 33 35 36 38 37 37 36 35 34 33 32 32 31 29 27 25
35 36 39 38 35 34 33 33 34 36 35 40 38 38 38 41 42 40 39 37 37 33 35 34 32 37 37 33 31 33 36 38 37 35 34 35 34 33 32 31 29 27 25 23
37 35 33 33 35 31 31 28 31 33 35 35 37 38 39 39 40 39 37 34 34 34 33 32 34 39 33 29 31 34 34 35 34 33 34 34 34 34 31 29 27 25 23 21
31 29 27 30 31 29 30 30 32 35 35 36 37 37 38 37 38 37 34 34 33 31 29 31 40 35 30 30 33 34 33 32 32 32 32 33 32 32 31 29 27 23 22 22
31 30 27 28 30 34 34 34 34 35 37 36 37 37 35 36 35 34 34 31 29 30 31 37 35 32 30 31 32 33 32 31 31 32 32 31 31 28 28 28 26 23 22 21
32 30 28 29 30 32 32 33 32 36 35 36 36 34 34 34 36 31 31 30 30 35 34 35 32 31 31 30 31 31 30 29 29 30 29 29 28 27 26 25 23 22 21 19
27 29 32 31 29 30 30 27 28 31 34 33 33 32 33 34 32 31 34 33 33 32 33 32 32 30 29 29 30 30 29 29 29 28 28 27 26 25 23 21 21 19 18 17

GFSNW_sfc_dewp_021.txt.gz
Dewpoint
44 44 45 44 48 50 45 40 33 44 47 34 36 33 34 40 37 39 35 30 28 27 30 29 27 27 29 31 31 29 30 30 25 27 30 31 30 28 27 24 17 23 20 21
45 44 45 44 46 48 45 36 39 45 42 30 34 37 37 38 39 36 34 32 30 29 27 27 27 29 30 32 30 30 31 27 20 25 29 30 29 29 29 29 29 23 22 20
43 45 45 46 46 48 45 40 29 35 40 38 36 36 37 36 39 36 35 32 29 28 28 30 28 31 32 32 34 39 34 31 22 21 24 31 28 30 29 29 28 25 25 25
42 43 44 46 47 47 44 41 33 37 29 34 35 38 37 33 34 36 34 31 30 29 28 28 29 31 31 32 38 33 33 26 28 30 30 31 29 29 30 29 30 29 27 28
41 41 42 44 46 45 42 38 37 38 36 35 34 35 34 34 35 36 32 31 32 34 33 33 29 31 31 30 33 32 33 24 32 25 30 30 29 30 30 31 30 31 32 32
41 40 40 42 44 43 42 43 43 41 37 31 30 30 34 35 37 37 37 34 34 37 38 38 37 36 35 33 32 31 34 31 27 21 29 30 28 30 30 36 37 36 34 36
41 40 40 40 41 42 43 43 42 39 33 32 31 33 34 35 37 36 37 36 37 40 40 39 38 38 36 34 33 35 35 34 33 27 27 20 34 37 37 36 36 38 38 36
41 40 40 39 39 40 41 44 41 39 36 37 34 32 32 37 37 37 38 39 40 41 39 36 33 33 33 32 35 36 37 35 33 30 28 26 30 37 36 36 33 36 34 35
41 40 40 39 39 39 38 44 43 40 37 36 38 38 33 34 33 36 40 42 44 42 39 35 27 25 32 32 34 36 37 37 35 33 27 22 29 36 39 37 33 35 36 38
41 40 39 40 39 38 37 38 41 40 37 38 37 37 36 37 35 35 37 40 40 41 36 33 29 26 32 29 31 33 34 35 32 32 30 30 32 33 39 31 29 36 35 38
42 40 40 40 39 38 36 36 40 38 36 35 36 38 38 42 37 35 39 37 38 38 34 33 32 31 32 31 32 33 32 32 31 33 30 25 32 35 34 34 37 36 37 35
40 41 40 40 39 39 37 33 38 40 36 33 38 36 36 38 42 41 41 38 38 38 35 34 36 32 34 32 29 33 31 31 31 31 29 30 35 35 37 36 35 35 37 35
40 41 39 39 39 39 38 34 36 38 33 33 36 37 41 41 41 46 41 42 41 41 42 38 38 35 36 31 32 33 34 34 33 33 33 35 36 36 35 35 34 35 38 36
40 38 40 40 41 39 39 35 36 36 33 29 32 43 44 46 46 45 46 45 45 44 43 39 39 36 38 33 35 35 36 36 35 34 36 36 35 35 36 34 36 33 35 34
39 40 40 40 41 40 38 37 37 38 31 31 33 37 44 46 45 45 45 44 43 43 41 40 37 39 38 37 36 35 35 33 34 34 36 36 35 36 35 34 34 32 32 32
40 40 41 40 41 41 40 31 42 42 39 32 30 43 44 45 45 44 44 45 45 44 42 41 42 42 39 36 35 35 35 35 35 34 36 36 36 34 34 33 32 32 31 30
40 40 40 40 40 40 35 29 39 41 40 33 30 37 45 45 45 45 45 45 44 43 42 41 41 41 41 39 34 35 36 37 38 38 36 35 35 34 33 32 32 32 29 28
40 40 39 40 41 38 37 37 42 40 35 34 30 37 41 45 43 42 45 43 44 44 42 42 41 41 41 37 37 39 40 40 38 38 38 37 35 33 32 31 29 28 27 25
40 39 40 39 37 34 38 41 41 40 36 31 34 34 34 44 43 43 42 43 39 42 40 40 41 38 36 38 39 38 36 38 39 36 35 34 34 32 31 30 29 27 26 25
38 37 35 34 37 41 41 39 35 34 35 35 33 40 37 41 41 39 41 41 38 35 39 41 38 37 39 32 31 31 31 33 36 36 32 30 29 32 31 30 29 28 26 25
35 33 31 36 40 39 37 33 32 35 33 38 39 38 37 41 37 38 39 36 35 33 35 34 33 36 31 30 30 32 34 34 35 36 37 37 35 33 32 31 29 28 28 26
35 36 38 38 36 33 31 31 34 33 33 38 38 37 39 38 40 38 38 34 34 31 35 33 30 34 31 30 31 32 33 34 34 35 37 36 36 34 33 31 29 27 25 22
39 36 31 32 33 28 27 27 32 32 33 35 35 35 36 37 38 36 35 33 32 33 32 30 31 31 31 30 31 31 32 32 33 33 34 35 35 35 33 30 27 24 24 24
31 27 24 27 27 28 29 30 31 34 34 35 36 35 33 36 34 36 32 34 32 28 28 27 30 30 31 30 30 30 30 31 32 32 33 35 35 34 32 29 26 25 26 23
28 28 22 27 31 32 32 32 33 34 36 36 36 35 36 33 33 34 32 30 27 27 27 29 26 30 30 29 28 29 30 30 30 32 31 32 34 33 32 32 30 28 21 20
29 28 26 29 29 29 30 30 31 34 34 35 34 33 33 33 32 31 29 27 26 29 26 25 28 29 29 28 28 28 29 29 29 29 30 29 29 29 27 24 22 21 20 19
26 26 30 30 29 29 21 28 30 32 34 32 32 31 31 32 31 29 31 29 28 29 30 24 26 27 29 27 28 28 29 28 29 29 28 28 28 24 23 22 22 21 20 19